Moncks Corner, SC

2:23 AM EST on December 18, 2017 (GMT -0500)
Moncks Corner

Weather History for KMKS - March, 2013

Change the Weather History Date:

Monday, March 11, 2013

  Actual Average (KCHS) Record (KCHS)
Temperature  
Mean Temperature 58 °F -  
Max Temperature 71 °F 68 °F 85 °F (1967)
Min Temperature 44 °F 43 °F 27 °F (1969)
Degree Days  
Heating Degree Days 8    
Growing Degree Days 8 (Base 50)    
Moisture  
Dew Point 50 °F    
Average Humidity 71    
Maximum Humidity 94    
Minimum Humidity 46    
Precipitation  
Precipitation 0.00 in - - ()
Sea Level Pressure  
Sea Level Pressure 30.08 in    
Wind  
Wind Speed 3 mph (SSE)    
Max Wind Speed 16 mph    
Max Gust Speed 24 mph    
Visibility 6 miles    
Events      
Averages and records for this station are not official NWS values.
T = Trace of Precipitation, MM = Missing Value Source: NWS Daily Summary

Daily Weather History Graph

Daily Weather History Graph

Search for Another Location

Airport or City:

Trip Planner

Search our weather history database for the weather conditions in past years. The results will help you decide how hot, cold, wet, or windy it might be!

Date:

Astronomy

Mar. 11, 2013 Rise Set
Actual Time 7:35 AM EDT 7:25 PM EDT
Civil Twilight 7:10 AM EDT 7:49 PM EDT
Nautical Twilight 6:42 AM EDT 8:18 PM EDT
Astronomical Twilight 6:13 AM EDT 8:47 PM EDT
Moon 7:09 AM EDT (3/11) 7:32 PM EDT (3/11)
Length of Visible Light 12h 39m
Length of Day
11h 49m
Waning Crescent, 0% of the Moon is Illuminated
Mar 11
Waning Crescent
Mar 11
New
Mar 19
First Quarter
Mar 27
Full
Apr 3
Last Quarter

Hourly Weather History & Observations

Time (EDT) Temp. Dew Point Humidity Pressure Visibility Wind Dir Wind Speed Gust Speed Precip Events Conditions
12:15 AM 48.2 °F 35.6 °F 62% 30.23 in 5.0 mi ESE 3.5 mph - N/A   Haze
12:35 AM 48.2 °F 35.6 °F 62% 30.23 in 2.5 mi Calm Calm - N/A   Haze
12:55 AM 48.2 °F 35.6 °F 62% 30.22 in 2.5 mi Calm Calm - N/A   Haze
1:15 AM 48.2 °F 37.4 °F 66% 30.21 in 2.5 mi Calm Calm - N/A   Haze
1:35 AM 46.4 °F 37.4 °F 71% 30.21 in 3.0 mi Calm Calm - N/A   Haze
1:55 AM 44.6 °F 37.4 °F 76% 30.21 in 3.0 mi Calm Calm - N/A   Haze
2:15 AM 44.6 °F 39.2 °F 81% 30.20 in 3.0 mi Calm Calm - N/A   Haze
2:35 AM 46.4 °F 41.0 °F 81% 30.20 in 3.0 mi Calm Calm - N/A   Haze
3:15 AM 46.4 °F 42.8 °F 87% 30.18 in 3.0 mi Calm Calm - N/A   Clear
3:35 AM 46.4 °F 41.0 °F 81% 30.17 in 3.0 mi Calm Calm - N/A   Clear
3:55 AM 46.4 °F 42.8 °F 87% 30.16 in 2.5 mi Calm Calm - N/A   Clear
4:15 AM 46.4 °F 42.8 °F 87% 30.16 in 2.5 mi Calm Calm - N/A   Clear
4:35 AM 46.4 °F 42.8 °F 87% 30.15 in 2.0 mi Calm Calm - N/A   Clear
4:55 AM 46.4 °F 44.6 °F 93% 30.14 in 2.0 mi Calm Calm - N/A   Clear
5:15 AM 46.4 °F 42.8 °F 87% 30.14 in 2.0 mi Calm Calm - N/A   Scattered Clouds
5:35 AM 48.2 °F 46.4 °F 93% 30.13 in 3.0 mi ENE 3.5 mph - N/A   Mostly Cloudy
5:55 AM 50.0 °F 46.4 °F 87% 30.13 in 4.0 mi Calm Calm - N/A   Mostly Cloudy
6:15 AM 50.0 °F 48.2 °F 94% 30.13 in 5.0 mi Calm Calm - N/A   Overcast
6:55 AM 51.8 °F 48.2 °F 88% 30.13 in 5.0 mi Calm Calm - N/A   Overcast
7:15 AM 51.8 °F 50.0 °F 94% 30.12 in 5.0 mi Calm Calm - N/A   Overcast
7:35 AM 51.8 °F 50.0 °F 94% 30.12 in 4.0 mi Calm Calm - N/A   Overcast
8:15 AM 51.8 °F 50.0 °F 94% 30.13 in 2.5 mi Calm Calm - N/A   Overcast
8:35 AM 53.6 °F 50.0 °F 88% 30.13 in 3.0 mi Calm Calm - N/A   Mostly Cloudy
8:55 AM 53.6 °F 51.8 °F 94% 30.12 in 3.0 mi Calm Calm - N/A   Scattered Clouds
9:15 AM 55.4 °F 51.8 °F 88% 30.11 in 4.0 mi East 3.5 mph - N/A   Scattered Clouds
9:35 AM 55.4 °F 51.8 °F 88% 30.12 in 4.0 mi Calm Calm - N/A   Mostly Cloudy
9:55 AM 57.2 °F 51.8 °F 82% 30.12 in 5.0 mi Calm Calm - N/A   Haze
10:15 AM 60.8 °F 53.6 °F 77% 30.12 in 7.0 mi Calm Calm - N/A   Mostly Cloudy
10:35 AM 62.6 °F 53.6 °F 72% 30.12 in 7.0 mi ESE 4.6 mph - N/A   Mostly Cloudy
10:55 AM 64.4 °F 53.6 °F 68% 30.12 in 7.0 mi SSE 4.6 mph - N/A   Overcast
11:15 AM 66.2 °F 53.6 °F 64% 30.11 in 7.0 mi SE 4.6 mph - N/A   Overcast
11:35 AM 68.0 °F 53.6 °F 60% 30.11 in 5.0 mi SSE 4.6 mph - N/A   Haze
11:55 AM 68.0 °F 53.6 °F 60% 30.12 in 7.0 mi South 5.8 mph - N/A   Overcast
12:15 PM 69.8 °F 53.6 °F 56% 30.11 in 7.0 mi SSE 8.1 mph - N/A   Overcast
12:35 PM 71.6 °F 53.6 °F 53% 30.10 in 5.0 mi South 11.5 mph - N/A   Haze
12:55 PM 69.8 °F 51.8 °F 53% 30.10 in 7.0 mi South 11.5 mph 24.2 mph N/A   Overcast
1:15 PM 69.8 °F 51.8 °F 53% 30.08 in 7.0 mi SSW 12.7 mph - N/A   Overcast
1:35 PM 71.6 °F 51.8 °F 50% 30.08 in 10.0 mi South 10.4 mph 17.3 mph N/A   Overcast
1:55 PM 71.6 °F 51.8 °F 50% 30.07 in 7.0 mi SSW 9.2 mph 18.4 mph N/A   Overcast
2:15 PM 69.8 °F 51.8 °F 53% 30.06 in 7.0 mi SSW 11.5 mph 17.3 mph N/A   Overcast
2:35 PM 71.6 °F 51.8 °F 50% 30.05 in 10.0 mi South 10.4 mph 16.1 mph N/A   Overcast
2:55 PM 69.8 °F 51.8 °F 53% 30.04 in 10.0 mi SSW 13.8 mph - N/A   Overcast
3:15 PM 71.6 °F 50.0 °F 46% 30.03 in 7.0 mi South 13.8 mph 20.7 mph N/A   Overcast
3:35 PM 71.6 °F 51.8 °F 50% 30.02 in 10.0 mi South 8.1 mph - N/A   Overcast
4:15 PM 69.8 °F 51.8 °F 53% 30.00 in 10.0 mi South 13.8 mph 23.0 mph N/A   Overcast
4:35 PM 69.8 °F 53.6 °F 56% 30.00 in 7.0 mi South 10.4 mph 17.3 mph N/A   Overcast
4:55 PM 71.6 °F 53.6 °F 53% 30.00 in 7.0 mi SSW 16.1 mph 19.6 mph N/A   Overcast
5:15 PM 71.6 °F 53.6 °F 53% 30.00 in 7.0 mi South 11.5 mph 19.6 mph N/A   Overcast
5:35 PM 69.8 °F 53.6 °F 56% 29.99 in 7.0 mi South 11.5 mph 16.1 mph N/A   Overcast
5:55 PM 69.8 °F 53.6 °F 56% 29.98 in 10.0 mi SSE 6.9 mph - N/A   Overcast
6:15 PM 69.8 °F 53.6 °F 56% 29.98 in 7.0 mi South 10.4 mph - N/A   Overcast
6:35 PM 68.0 °F 53.6 °F 60% 29.99 in 10.0 mi SSE 8.1 mph - N/A   Overcast
7:15 PM 68.0 °F 53.6 °F 60% 29.98 in 10.0 mi SSE 5.8 mph - N/A   Overcast
7:35 PM 66.2 °F 53.6 °F 64% 29.98 in 10.0 mi SSE 6.9 mph - N/A   Scattered Clouds
7:55 PM 66.2 °F 53.6 °F 64% 29.97 in 10.0 mi SSE 6.9 mph - N/A   Clear
8:15 PM 66.2 °F 55.4 °F 68% 29.95 in 10.0 mi SSE 5.8 mph - N/A   Clear
8:35 PM 64.4 °F 55.4 °F 73% 29.93 in 7.0 mi SSE 8.1 mph - N/A   Clear
8:55 PM 64.4 °F 55.4 °F 73% 29.95 in 5.0 mi SSE 8.1 mph - N/A   Haze
9:15 PM 64.4 °F 55.4 °F 73% 29.95 in 7.0 mi SSE 5.8 mph - N/A   Clear
9:35 PM 64.4 °F 57.2 °F 77% 29.95 in 7.0 mi SSE 4.6 mph - N/A   Clear
9:55 PM 64.4 °F 57.2 °F 77% 29.95 in 10.0 mi SSE 4.6 mph - N/A   Clear
10:15 PM 64.4 °F 57.2 °F 77% 29.95 in 10.0 mi South 5.8 mph - N/A   Scattered Clouds
10:35 PM 64.4 °F 57.2 °F 77% 29.95 in 7.0 mi South 3.5 mph - N/A   Scattered Clouds
11:15 PM 64.4 °F 57.2 °F 77% 29.92 in 10.0 mi South 5.8 mph - N/A   Scattered Clouds
11:35 PM 64.4 °F 57.2 °F 77% 29.93 in 7.0 mi South 5.8 mph - N/A   Scattered Clouds
11:55 PM 64.4 °F 57.2 °F 77% 29.94 in 10.0 mi South 4.6 mph - N/A   Scattered Clouds